Location: Ferintosh
(52.7647°N, 112.9692°W)
Time: 14:28:30
(UTC+00:00)

Tiros 1 despin weight - Pass Details

Date: 30 May 2024
Orbit: 577 x 621 km, 48.2° (Epoch: 19 June)

Event Time Altitude Azimuth Distance (km) Brightness Sun altitude
Rises 09:44:07 0° 274° (W) 2,814 ? -9.8°
Reaches altitude 10° 09:46:42 10° 261° (W) 1,904 ? -9.6°
Maximum altitude 09:50:15 25° 206° (SSW) 1,192 ? -9.3°
Drops below altitude 10° 09:53:46 10° 151° (SSE) 1,885 ? -9.1°
Sets 09:56:19 0° 138° (SE) 2,779 ? -8.8°
